Showing default

HORACIO, 59098

Orbit data source: Space-Track

HORACIO, 59098 is a payload satellite owned by Satlantis (ES) in SSO that was launched on Mon, 04 Mar 2024 UTC via an FALCON 9 launch vehicle from the Air Force Western Test Range (AFWTR). Payload-class satellites include a variety of spacecraft equipped with specific instruments for various scientific and technological missions. These include communications satellites like Starlink; space stations such as the ISS; scientific satellites like the Hubble; Earth observation satellites from companies like Planet Labs, Umbra, and HawkEye 360; GPS; miniature CubeSats for education and research; and military/defense satellites.

Loading next visibility...
Identifier
59098, 2024-043A
Orbit
SSO
Last TLE update
9 hours ago
Origin
Manufacturer
NanoAvionics
Mission
Operational Commercial Imaging
Bus & Motor
CUBESAT 16U M16P, Unknown motor
Mass
~20 kg wet, ~20 kg dry
Launch date (UTC)
2024-03-04 (1 year ago)
Launch vehicle
FALCON 9
Launch site
Air Force Western Test Range (AFWTR)
Object type
Payload
Rocket body
Debris
Shape & HBR
Box, 0.4 m
Radar Cross Section
0.100 m², Small (<0.1 m²)

Expand to show TLE details & history

TLE from 9 hours ago
0 HORACIO
1 59098U 24043A   25115.43385604  .00005725  00000-0  51829-3 0  9998
2 59098  97.7993 241.8003 0010402 343.7757  16.3129 14.95745678 62149
Epoch: 2025-04-25T10:24Z
Definitive object data (Epoch: 2025-04-25T10:24:45.161Z)
Latitude
-0.00008°
Longitude
-128.07886°
Altitude
576.158 km
Speed
7.576 km/s
True Right ascension
16h 07m 12s
True Declination
0° 00' 00"
Sunlit
Object was in full shadow at TLE epoch
Visualization TLE readout
Latitude
-44.15879°
Longitude
-120.08608°
Altitude
590.642 km
Speed
7.567 km/s
Apparent Right ascension
15h 53m 26s
Apparent Declination
-42° 31' 59"
Sunlit
Object is in full shadow
Visualization observer readout
Local Sidereal Time
03:06:41
Azimuth
249.617° W
Elevation
-80.837°
Doppler factor
1
Orbital elements
Apogee altitude
584.309 km
Perigee altitude
569.84 km
Semi-major axis
6,955.212 km
Eccentricity
0.0010402
Inclination
97.7993°
RAAN
241.8003°
Arg. of periapsis
343.7757°
True anomaly
16.34642°
Mean anomaly
16.3129°
Eccentric anomaly
16.32966°
Mean motion
3.74177 °/min
BSTAR
0.00051829
Orbital period
96.21 mins
Loading maneuver chart data...
Loading SW <> Apogee altitude chart data...
Loading historical data...
Loading historical data...
Loading historical data...
Loading historical data...
Loading historical data...
Loading historical data...
Loading historical data...

HORACIO Visibility forecast

Observer location: undefined°, undefined°

Span
Click to sort rows by Start time (UTC) header in descending order
Start Az.
Max El. time (UTC)
Max El. Az.
Max El.
End time (UTC)
End Az.
7 mins2025-04-25 20:36:51.327Z34.737° NE2025-04-25 20:40:51.327Z109.402° ESE26.517°2025-04-25 20:43:51.327Z158.108° S
4 mins2025-04-25 22:13:51.327Z323.599° NNW2025-04-25 22:15:51.327Z285.575° WNW19.141°2025-04-25 22:17:51.327Z252.074° W
4 mins2025-04-26 07:26:51.327Z101.081° ESE2025-04-26 07:28:51.327Z64.92° ENE18.34°2025-04-26 07:30:51.327Z30.465° NE
5 mins2025-04-26 09:01:51.327Z215.99° SW2025-04-26 09:03:51.327Z263.899° W27.576°2025-04-26 09:06:51.327Z321.929° NNW
|